Weather Roundup
Issued by NWS Springfield, MO

Home | Current Version | Previous Version | Text Only | Print | Product List | Glossary On
Versions: 1 2 3 4 5 6 7 8 9 10 11 12 13 14 15 16 17 18 19 20 21 22 23 24 25 26 27 28 29 30 31 32 33 34 35 36 37 38 39 40 41 42 43 44 45 46 47 48 49 50
000
NZUS99 KSGF 120659
HRRSGF

HOURLY WEATHER
NATIONAL WEATHER SERVICE SPRINGFIELD MO
200 AM CDT SAT JUL 12 2014

......SGF CWA......

CITY           SKY/WX    TMP DP  RH WIND       PRES   REMARKS
SPRINGFIELD    CLEAR     74  69  85 S8        30.14S
JOPLIN         CLEAR     76  69  79 S9        30.12S
WEST PLAINS    CLEAR     75  72  90 S5        30.17S
ROLLA          CLOUDY    76  72  87 S9        30.10F
OSAGE BEACH    MOCLDY    79  72  78 S7        30.10F
BRANSON        PTCLDY    73  72  94 S6        30.17F

......SURROUNDING SGF CWA......

CITY           SKY/WX    TMP DP  RH WIND       PRES   REMARKS
CHANUTE        CLEAR     75  69  81 S6        30.10S
PARSONS        CLEAR     75  69  81 S5        30.11S
COFFEYVILLE    CLEAR     74  70  87 S7        30.09F
EMPORIA        CLEAR     73  69  87 S10       30.07F
SILOAM SPRINGS CLEAR     73  64  73 SE5       30.17S
HARRISON AR    CLEAR     74  71  91 S3        30.17F
NEAR YELLVILLE CLEAR     75  72  88 SW3       30.14F

......KANSAS AND MISSOURI......

CITY           SKY/WX    TMP DP  RH WIND       PRES   REMARKS
KANSAS CTY INT PTCLDY    78  70  76 S16       30.05F
DOWNTOWN KC    CLEAR     82  70  66 SW12      30.04F
COLUMBIA       MOCLDY    78  74  87 S7        30.08F
SEDALIA        PTCLDY    80  72  76 SW9       30.08F
ST JOSEPH      PTCLDY    77  71  82 S7        30.02F
ST LOUIS       CLOUDY    82  71  69 S8        30.11S
SPIRIT OF STL  MOCLDY    79  71  76 CALM      30.09S
KIRKSVILLE     CLEAR     77  73  87 SW6       30.04F
WICHITA        CLEAR     74  64  71 S10       30.08S
TOPEKA         PTCLDY    80  70  71 S7        30.04F
OLATHE         PTCLDY    76  70  82 S6        30.07S

......TENNESSEE......

CITY           SKY/WX    TMP DP  RH WIND       PRES   REMARKS
MEMPHIS        CLEAR     76  72  87 CALM      30.14F
NASHVILLE      CLEAR     73  65  75 CALM      30.16F

......ARKANSAS.......

CITY           SKY/WX    TMP DP  RH WIND       PRES   REMARKS
FAYETTEVILLE   CLEAR     69  69 100 CALM      30.17S
FT SMITH       CLEAR     78  71  79 NE3       30.12S
LITTLE ROCK    CLEAR     76  72  87 CALM      30.14S

......OKLAHOMA.......

CITY           SKY/WX    TMP DP  RH WIND       PRES   REMARKS
TULSA          CLEAR     80  68  66 S8        30.09S
PONCA CITY     CLEAR     79  64  60 S6        30.09S
MCALESTER      CLEAR     76  66  71 S3        30.13S
OKLAHOMA CITY  PTCLDY    76  62  62 S6        30.12R

......IOWA............

CITY           SKY/WX    TMP DP  RH WIND       PRES   REMARKS
DES MOINES     CLOUDY    75  72  90 E5        29.99F THUNDER
QUAD CITIES    PTCLDY    73  67  81 CALM      30.02F

......ILLINOIS........

CITY           SKY/WX    TMP DP  RH WIND       PRES   REMARKS
QUINCY         PTCLDY    77  72  84 S6        30.05F
CHICAGO        CLOUDY    72  59  63 S5        30.10F




USA.gov is the U.S. government's official web portal to all federal, state and local government web resources and services.